Meknes, Morocco

7:05 PM WEST on April 23, 2017 (GMT +0100)
Meknes

Weather History for GMFM - October, 2013

Change the Weather History Date:

Friday, October 25, 2013

  Actual Average (GMFF) Record (GMFF)
Temperature  
Mean Temperature 66 °F -  
Max Temperature 76 °F 68 °F 88 °F (2014)
Min Temperature 55 °F 49 °F 48 °F (1999)
Growing Degree Days 16 (Base 50)    
Moisture  
Dew Point 53 °F    
Average Humidity 64    
Maximum Humidity 88    
Minimum Humidity 35    
Precipitation  
Precipitation 0.00 in 0.10 in - ()
Sea Level Pressure  
Sea Level Pressure 29.98 in    
Wind  
Wind Speed 5 mph ()    
Max Wind Speed 13 mph    
Max Gust Speed -    
Visibility 5.7 miles    
Events      
Averages and records for this station are not official NWS values.
T = Trace of Precipitation, MM = Missing Value Source: Averaged Metar Reports

Daily Weather History Graph

Daily Weather History Graph

Search for Another Location

Airport or City:

Trip Planner

Search our weather history database for the weather conditions in past years. The results will help you decide how hot, cold, wet, or windy it might be!

Date:

Astronomy

Oct. 25, 2013 Rise Set
Actual Time 7:35 AM WEST 6:36 PM WEST
Civil Twilight 7:09 AM WEST 7:01 PM WEST
Nautical Twilight 6:40 AM WEST 7:31 PM WEST
Astronomical Twilight 6:11 AM WEST 8:00 PM WEST
Moon 11:47 PM WEST (10/25) 1:02 PM WEST (10/25)
Length of Visible Light 11h 52m
Length of Day
11h 01m
Waning Gibbous, 64% of the Moon is Illuminated
Oct 25
Waning Gibbous
Oct 27
Last Quarter
Nov 3
New
Nov 10
First Quarter
Nov 17
Full

Hourly Weather History & Observations

Time (WEST) Temp. Dew Point Humidity Pressure Visibility Wind Dir Wind Speed Gust Speed Precip Events Conditions
12:00 AM 62.6 °F 57.2 °F 82% 30.04 in - SE 2.3 mph - N/A   Clear
1:00 AM 61 °F 57 °F 84% 29.98 in 6 mi ESE 3.5 mph - -   Clear
1:00 AM 60.8 °F 57.2 °F 88% 30.01 in - ESE 3.5 mph - N/A   Clear
2:00 AM 60.8 °F 57.2 °F 88% 30.01 in - ESE 3.5 mph - N/A   Clear
3:00 AM 60.8 °F 57.2 °F 88% 29.95 in - East 8.1 mph - N/A   Clear
4:00 AM 61 °F 57 °F 81% 29.90 in 6 mi ESE 6.9 mph - -   Clear
4:00 AM 60.8 °F 57.2 °F 88% 29.95 in - ESE 6.9 mph - N/A   Clear
5:00 AM 60.8 °F 57.2 °F 88% 29.95 in - East 8.1 mph - N/A   Clear
6:00 AM 60.8 °F 51.8 °F 72% 29.95 in - ESE 5.8 mph - N/A   Clear
7:00 AM 58 °F 52 °F 73% 29.91 in 6 mi WSW 2.3 mph - -   Clear
7:00 AM 59.0 °F 51.8 °F 77% 29.95 in - WSW 2.3 mph - N/A   Clear
8:00 AM 55.4 °F 48.2 °F 77% 29.95 in - SSW 3.5 mph - N/A   Clear
9:00 AM 60.8 °F 51.8 °F 72% 29.95 in - SSW 2.3 mph - N/A   Clear
10:00 AM 68 °F 56 °F 56% 29.93 in 5 mi West 8.1 mph - -   Clear
10:00 AM 68.0 °F 55.4 °F 64% 30.01 in 5.0 mi West 8.1 mph - N/A   Unknown
11:00 AM 71.6 °F 55.4 °F 57% 29.98 in 5.0 mi WSW 3.5 mph - N/A   Unknown
12:00 PM 73.4 °F 55.4 °F 53% 29.98 in - North - - N/A   Scattered Clouds
1:00 PM 72 °F 57 °F 50% 29.91 in 6 mi WNW 12.7 mph - -   Mostly Cloudy
1:00 PM 71.6 °F 57.2 °F 60% 29.98 in 6.2 mi WNW 12.7 mph - N/A   Scattered Clouds
2:00 PM 71.6 °F 59.0 °F 64% 29.98 in 6.2 mi WNW 10.4 mph - N/A   Scattered Clouds
3:00 PM 75.2 °F 51.8 °F 44% 29.95 in 6.2 mi West 9.2 mph - N/A   Scattered Clouds
4:00 PM 73.4 °F 51.8 °F 47% 29.98 in 6.2 mi WNW 11.5 mph - N/A   Scattered Clouds
5:00 PM 71.6 °F 51.8 °F 50% 29.98 in 6.2 mi NNW 11.5 mph - N/A   Mostly Cloudy
6:00 PM 68.0 °F 48.2 °F 49% 30.01 in 6.2 mi NW 9.2 mph - N/A   Mostly Cloudy
7:00 PM 68 °F 47 °F 35% 29.98 in 6 mi WNW 5.8 mph - -   Overcast
7:00 PM 68.0 °F 46.4 °F 46% 30.04 in 6.2 mi WNW 5.8 mph - N/A   Mostly Cloudy
8:00 PM 68.0 °F 50.0 °F 52% 30.04 in 6.2 mi NW 5.8 mph - N/A   Mostly Cloudy
9:00 PM 66.2 °F 48.2 °F 52% 30.06 in 5.0 mi WNW 3.5 mph - N/A   Mostly Cloudy
10:00 PM 66 °F 48 °F 41% 30.01 in 5 mi NW 3.5 mph - -   Mostly Cloudy
10:00 PM 66.2 °F 48.2 °F 52% 30.06 in 5.0 mi NW 3.5 mph - N/A   Mostly Cloudy
11:00 PM 64.4 °F 48.2 °F 56% 30.06 in 5.0 mi WNW 2.3 mph - N/A   Mostly Cloudy